Flag for U.S.A. Weather past 2 weeks in Menominee, Michigan, U.S.A.

Now
75 °F

Sunny.


Feels Like: 78 °F
Forecast: 56 / 77 °F
Wind: No wind

Location: Menominee Weather Reporting Station

Current Time: Jul 31, 2014 at 7:38:47 PM

Latest Report: Jul 31, 2014 at 7:15 PM


Visibility: 10 mi

Pressure: 29.93 "Hg

Humidity: 50%

Dew point: 55 °F

Location of MenomineeLocation

Historic Weather in Menominee — Graph

°F

Menominee temperature yesterday

Maximum temperature yesterday: 72 °F (at 3:55 PM)
Minimum temperature yesterday: 52 °F (at 4:15 AM)
Average temperature yesterday: 61 °F

Past Weeks' High & Low Weather Summary

 TemperatureHumidityPressure
High84 °F (Jul 21, 12:55 PM)94% (Jul 17, 2:15 AM)30.20 "Hg (Jul 17, 2:15 AM)
Low46 °F (Jul 17, 5:35 AM)36% (Jul 17, 4:55 PM)29.65 "Hg (Jul 27, 10:55 AM)
Average66 °F69%29.98 "Hg
* Reported Jul 16 6:15 PM — Jul 31 6:35 PM, Menominee, Weather by CustomWeather, © 2014

Note: Actual official high and low records may vary slightly from our data, if they occured in-between our weather recording intervals... More about our weather records

Advertising

Menominee weather history for previous 24 hours

 ConditionsComfort  
Time TempWeatherWind HumidityBarometerVisibility
6:35 PM
Jul 31
77 °FSunny.No wind47%29.94 "Hg10 mi
6:15 PM79 °FPassing clouds.No wind42%29.94 "Hg10 mi
5:55 PM79 °FScattered clouds.5 mph39%29.93 "Hg10 mi
5:35 PM79 °FPassing clouds.5 mph42%29.93 "Hg10 mi
5:15 PM79 °FScattered clouds.5 mph39%29.93 "Hg10 mi
4:55 PM79 °FPassing clouds.5 mph39%29.93 "Hg10 mi
4:35 PM79 °FPassing clouds.5 mph39%29.92 "Hg10 mi
4:15 PM79 °FPassing clouds.5 mph37%29.93 "Hg10 mi
3:55 PM79 °FSunny.7 mph39%29.93 "Hg10 mi
3:35 PM79 °FSunny.5 mph39%29.93 "Hg10 mi
3:15 PM79 °FPassing clouds.7 mph39%29.93 "Hg10 mi
2:55 PM79 °FPassing clouds.6 mph39%29.93 "Hg10 mi
2:35 PM79 °FPassing clouds.5 mph42%29.93 "Hg10 mi
2:15 PM77 °FBroken clouds.5 mph47%29.93 "Hg10 mi
1:55 PM75 °FBroken clouds.6 mph47%29.93 "Hg10 mi
1:35 PM73 °FBroken clouds.No wind57%29.94 "Hg10 mi
1:15 PM73 °FBroken clouds.3 mph53%29.94 "Hg10 mi
12:55 PM75 °FScattered clouds.5 mph50%29.94 "Hg10 mi
12:35 PM75 °FPassing clouds.5 mph50%29.95 "Hg10 mi
12:15 PM75 °FSunny.6 mph50%29.95 "Hg10 mi
11:55 AM73 °FSunny.5 mph57%29.95 "Hg10 mi
11:35 AM72 °FSunny.8 mph65%29.95 "Hg10 mi
11:15 AM72 °FSunny.6 mph65%29.95 "Hg10 mi
10:55 AM70 °FSunny.5 mph69%29.95 "Hg10 mi
10:35 AM70 °FSunny.7 mph73%29.96 "Hg10 mi
10:15 AM68 °FSunny.6 mph78%29.96 "Hg10 mi
9:55 AM66 °FSunny.6 mph83%29.96 "Hg10 mi
9:35 AM64 °FSunny.3 mph83%29.96 "Hg10 mi
9:15 AM63 °FSunny.No wind88%29.96 "Hg10 mi
8:55 AM61 °FSunny.No wind88%29.96 "Hg10 mi
8:35 AM61 °FSunny.5 mph88%29.96 "Hg10 mi
8:15 AM59 °FSunny.3 mph88%29.96 "Hg10 mi
7:55 AM57 °FSunny.3 mph94%29.96 "Hg10 mi
7:35 AM55 °FSunny.No wind94%29.96 "Hg10 mi
7:15 AM55 °FSunny.No wind94%29.96 "Hg10 mi
6:55 AM54 °FPassing clouds.No wind94%29.95 "Hg7 mi
6:35 AM54 °FLow clouds.No wind94%29.95 "Hg0 mi
6:15 AM52 °FLow clouds.No wind94%29.95 "Hg0 mi
5:55 AM52 °FDense fog.No wind94%29.95 "Hg0 mi
5:35 AM52 °FDense fog.No wind88%29.95 "Hg0 mi
5:15 AM54 °FClear.No wind94%29.95 "Hg3 mi
4:55 AM54 °FClear.No wind94%29.95 "Hg5 mi
4:35 AM54 °FDense fog.No wind94%29.95 "Hg1 mi
4:15 AM54 °FClear.No wind94%29.95 "Hg3 mi
3:55 AM54 °FClear.3 mph94%29.95 "Hg5 mi
3:35 AM55 °FClear.No wind94%29.95 "Hg10 mi
3:15 AM55 °FClear.No wind94%29.95 "Hg9 mi
2:55 AM55 °FClear.No wind94%29.95 "Hg10 mi
2:35 AM55 °FClear.3 mph94%29.95 "Hg10 mi
2:15 AM55 °FClear.3 mph94%29.95 "Hg10 mi
1:55 AM55 °FClear.No wind94%29.95 "Hg10 mi
1:35 AM55 °FClear.No wind94%29.96 "Hg10 mi
1:15 AM57 °FClear.No wind88%29.96 "Hg10 mi
12:55 AM57 °FClear.No wind88%29.96 "Hg10 mi
12:35 AM57 °FClear.No wind88%29.96 "Hg10 mi
12:15 AM57 °FClear.No wind94%29.96 "Hg10 mi
11:55 PM
Jul 30
57 °FClear.No wind94%29.96 "Hg10 mi
11:35 PM57 °FPassing clouds.No wind94%29.96 "Hg10 mi
11:15 PM57 °FPassing clouds.3 mph94%29.96 "Hg10 mi
10:55 PM57 °FPassing clouds.No wind94%29.96 "Hg10 mi
10:35 PM57 °FClear.No wind94%29.96 "Hg10 mi
10:15 PM59 °FClear.3 mph88%29.96 "Hg10 mi
9:55 PM59 °FClear.3 mph88%29.96 "Hg10 mi
9:35 PM57 °FPassing clouds.No wind94%29.96 "Hg10 mi
9:15 PM57 °FPassing clouds.No wind94%29.96 "Hg10 mi
8:55 PM59 °FPassing clouds.No wind88%29.96 "Hg10 mi
8:35 PM59 °FPartly cloudy.3 mph88%29.95 "Hg10 mi
8:15 PM61 °FMore clouds than sun.6 mph83%29.96 "Hg10 mi
7:55 PM61 °FMore clouds than sun.7 mph83%29.97 "Hg10 mi
7:35 PM61 °FMostly cloudy.3 mph83%29.97 "Hg10 mi
Weather by CustomWeather, © 2014

See weather overviewHow to use our weather pages